Weather History for LFKB - December, 2012

Change the Weather History Date:

Thursday, December 6, 2012

  Actual Average Record
Temperature  
Mean Temperature 48 °F -  
Max Temperature 56 °F 56 °F 64 °F (2003)
Min Temperature 39 °F 42 °F 37 °F (2013)
Degree Days  
Heating Degree Days 18    
Moisture  
Dew Point 34 °F    
Average Humidity 62    
Maximum Humidity 87    
Minimum Humidity 28    
Precipitation  
Precipitation 0.12 in - - ()
Sea Level Pressure  
Sea Level Pressure 29.79 in    
Wind  
Wind Speed 8 mph ()    
Max Wind Speed 23 mph    
Max Gust Speed 29 mph    
Visibility 6.4 miles    
Events Rain , Thunderstorm    
Averages and records for this station are not official NWS values.
T = Trace of Precipitation, MM = Missing Value Source: Averaged Metar Reports

Daily Weather History Graph

Daily Weather History Graph

Search for Another Location

Airport or City:

Trip Planner

Search our weather history database for the weather conditions in past years. The results will help you decide how hot, cold, wet, or windy it might be!

Date:

Astronomy

Dec. 06, 2012 Rise Set
Actual Time 7:37 AM CET 4:48 PM CET
Civil Twilight 7:05 AM CET 5:20 PM CET
Nautical Twilight 6:30 AM CET 5:55 PM CET
Astronomical Twilight 5:56 AM CET 6:29 PM CET
Moon No Moon Rise 12:15 PM CET (12/6)
Length of Visible Light 10h 14m
Length of Day
9h 11m
Waning Gibbous, 52% of the Moon is Illuminated
Dec 6
Waning Gibbous
Dec 6
Last Quarter
Dec 13
New
Dec 20
First Quarter
Dec 28
Full

Hourly Weather History & Observations

Time (CET) Temp. Windchill Dew Point Humidity Pressure Visibility Wind Dir Wind Speed Gust Speed Precip Events Conditions
12:00 AM 42.8 °F - 28.4 °F 57% 29.68 in 6.2 mi Calm Calm - N/A   Unknown
12:30 AM 42.8 °F - 28.4 °F 57% 29.68 in 6.2 mi Variable 2.3 mph - N/A   Unknown
1:00 AM 51 °F - 28 °F 28% 29.71 in 37 mi SW 16.1 mph - -   Clear
1:00 AM 50.0 °F - 28.4 °F 43% 29.68 in 6.2 mi SW 16.1 mph - N/A   Unknown
1:30 AM 50.0 °F - 28.4 °F 43% 29.68 in 6.2 mi West 11.5 mph - N/A   Unknown
2:00 AM 50.0 °F - 28.4 °F 43% 29.68 in 6.2 mi West 8.1 mph - N/A   Partly Cloudy
2:30 AM 50.0 °F - 28.4 °F 43% 29.68 in 6.2 mi Variable 3.5 mph - N/A   Partly Cloudy
3:00 AM 46.4 °F 45.2 °F 30.2 °F 53% 29.68 in 6.2 mi SSE 3.5 mph - N/A   Partly Cloudy
3:15 AM 46.4 °F 45.2 °F 30.2 °F 53% 29.68 in 6.2 mi Variable 3.5 mph - N/A   Mostly Cloudy
4:07 AM 44.6 °F 42.2 °F 30.2 °F 57% 29.68 in 6.2 mi WSW 4.6 mph - N/A   Mostly Cloudy
4:34 AM 50.0 °F - 32.0 °F 50% 29.68 in 6.2 mi West 16.1 mph 28.8 mph N/A   Mostly Cloudy
5:00 AM 50.0 °F - 32.0 °F 50% 29.68 in 6.2 mi West 16.1 mph - N/A   Mostly Cloudy
5:39 AM 50.0 °F - 32.0 °F 50% 29.68 in 6.2 mi West 17.3 mph - N/A   Mostly Cloudy
6:00 AM 50.0 °F - 32.0 °F 50% 29.68 in 6.2 mi West 15.0 mph - N/A   Mostly Cloudy
6:30 AM 50.0 °F - 32.0 °F 50% 29.68 in 6.2 mi West 17.3 mph - N/A   Mostly Cloudy
7:00 AM 49 °F - 32 °F 39% 29.70 in 7 mi SW 12.7 mph - -   Scattered Clouds
7:00 AM 50.0 °F - 32.0 °F 50% 29.68 in 6.2 mi WSW 13.8 mph - N/A   Scattered Clouds
7:30 AM 50.0 °F - 30.2 °F 47% 29.71 in 6.2 mi WSW 11.5 mph 25.3 mph N/A   Scattered Clouds
8:00 AM 48.2 °F - 32.0 °F 54% 29.74 in 6.2 mi Variable 2.3 mph - N/A   Scattered Clouds
8:30 AM 48.2 °F - 32.0 °F 54% 29.77 in 6.2 mi SW 6.9 mph - N/A   Scattered Clouds
9:05 AM 50.0 °F - 33.8 °F 54% 29.77 in 6.2 mi WSW 4.6 mph - N/A   Partly Cloudy
9:30 AM 50.0 °F - 33.8 °F 54% 29.80 in 6.2 mi South 4.6 mph - N/A   Partly Cloudy
10:00 AM 48.2 °F - 33.8 °F 58% 29.80 in 6.2 mi SW 4.6 mph - N/A   Partly Cloudy
10:30 AM 51.8 °F - 41.0 °F 67% 29.80 in 6.2 mi SSE 8.1 mph - N/A   Partly Cloudy
11:00 AM 51.8 °F - 41.0 °F 67% 29.80 in 6.2 mi SSE 11.5 mph - N/A   Scattered Clouds
11:30 AM 53.6 °F - 39.2 °F 58% 29.80 in 6.2 mi South 4.6 mph - N/A   Scattered Clouds
1:00 PM 48 °F - 35 °F 50% 29.85 in 7 mi NW 13.8 mph - - Rain Light Rain Showers
2:00 PM 53.6 °F - 35.6 °F 51% 29.83 in 6.2 mi NNW 3.5 mph - N/A Thunderstorm Thunderstorm
2:30 PM 48.2 °F - 39.2 °F 71% 29.86 in 6.2 mi NNW 16.1 mph - N/A Thunderstorm Thunderstorm
2:41 PM 46.4 °F 40.7 °F 39.2 °F 76% 29.86 in 6.2 mi NW 12.7 mph - N/A Rain Rain Showers
3:00 PM 46.4 °F 38.3 °F 39.2 °F 76% 29.86 in 5.0 mi NNW 23.0 mph - N/A Rain Rain Showers
3:30 PM 44.6 °F 42.2 °F 41.0 °F 87% 29.86 in 5.0 mi SSE 4.6 mph - N/A Rain Rain Showers
4:00 PM 44.6 °F 40.7 °F 41.0 °F 87% 29.86 in 6.2 mi SSW 6.9 mph - N/A   Scattered Clouds
4:30 PM 44.6 °F 39.7 °F 39.2 °F 81% 29.86 in 6.2 mi WSW 9.2 mph - N/A   Partly Cloudy
5:00 PM 44.6 °F 39.7 °F 37.4 °F 76% 29.86 in 6.2 mi WSW 9.2 mph - N/A   Partly Cloudy
5:30 PM 44.6 °F 40.7 °F 35.6 °F 71% 29.86 in 6.2 mi WSW 6.9 mph - N/A   Partly Cloudy
6:00 PM 44.6 °F 41.4 °F 37.4 °F 76% 29.86 in 6.2 mi West 5.8 mph - N/A   Partly Cloudy
6:30 PM 41.0 °F 39.0 °F 35.6 °F 81% 29.89 in 6.2 mi SE 3.5 mph - N/A   Partly Cloudy
7:00 PM 41 °F - 36 °F 75% 29.90 in 16 mi South 2.3 mph - -   Partly Cloudy
7:00 PM 41.0 °F 39.0 °F 35.6 °F 81% 29.89 in 6.2 mi Variable 3.5 mph - N/A   Partly Cloudy
7:30 PM 39.2 °F 37.0 °F 35.6 °F 87% 29.89 in 6.2 mi East 3.5 mph - N/A   Partly Cloudy
8:00 PM 39.2 °F 37.0 °F 35.6 °F 87% 29.89 in 6.2 mi SSE 3.5 mph - N/A   Partly Cloudy
8:30 PM 41.0 °F 36.4 °F 33.8 °F 76% 29.92 in 6.2 mi SW 6.9 mph - N/A   Partly Cloudy
9:00 PM 41.0 °F 38.0 °F 33.8 °F 76% 29.92 in 6.2 mi SW 4.6 mph - N/A   Partly Cloudy
9:30 PM 42.8 °F 38.6 °F 33.8 °F 70% 29.92 in 6.2 mi SW 6.9 mph - N/A   Partly Cloudy
10:30 PM 44.6 °F 40.2 °F 33.8 °F 66% 29.92 in 6.2 mi SW 8.1 mph - N/A   Partly Cloudy
11:00 PM 42.8 °F 37.5 °F 33.8 °F 70% 29.92 in 6.2 mi SSW 9.2 mph - N/A   Partly Cloudy
11:30 PM 42.8 °F 37.5 °F 33.8 °F 70% 29.92 in 6.2 mi SW 9.2 mph - N/A   Scattered Clouds